Dewpoint
64 64 65 66 66 66 66 66 66 66 66 66 66 66 66 66 65 64 63 63 62 62 63 63 63 63 63 63 64 62 62 61 60 59 59 59 59 59 62 62 63 61 61 59 59 59 57 58 59 60 62 63 63 64 64 65 65 66 66 67 67 66 64
64 64 65 66 66 66 66 66 66 66 66 66 66 65 65 65 66 65 64 63 63 63 64 64 64 63 63 63 63 63 62 62 61 61 61 60 60 60 62 61 62 62 61 61 61 59 58 57 58 58 60 61 62 63 64 64 65 65 66 66 67 66 64
64 64 64 65 66 66 65 65 66 66 66 66 66 66 65 65 66 66 65 64 63 63 64 64 64 64 64 64 64 63 62 62 62 63 61 61 61 61 61 61 62 62 63 62 61 60 60 59 60 59 58 60 59 61 62 63 64 64 65 66 66 65 64
63 63 64 64 65 65 65 65 65 66 66 66 66 66 65 65 66 66 66 65 64 65 65 64 64 64 64 64 64 64 63 62 62 62 62 62 62 62 62 62 62 62 62 62 62 60 60 58 59 59 57 58 58 60 61 63 63 64 64 65 66 65 64
63 63 63 64 64 65 65 65 65 66 65 66 66 66 65 65 66 66 66 66 65 64 64 65 64 64 64 64 64 64 64 63 63 63 63 62 62 62 62 63 63 63 63 63 63 63 62 61 61 60 59 59 59 60 61 62 63 64 64 65 65 65 65
63 63 63 63 64 64 65 65 65 65 66 65 65 65 65 65 66 66 66 66 65 65 65 65 65 65 65 64 64 64 64 64 63 63 63 63 63 62 62 63 63 63 63 64 63 64 63 62 62 59 58 58 59 59 61 62 62 64 64 64 65 65 65
63 63 64 64 64 64 65 65 65 65 65 66 66 65 65 65 65 65 66 66 66 66 65 65 65 65 65 64 64 64 64 64 64 64 64 63 63 63 64 63 64 64 64 64 64 64 63 62 61 61 58 58 59 60 61 62 63 62 63 64 65 65 64
63 63 64 64 64 64 65 65 65 66 66 66 66 66 66 65 65 65 65 65 66 66 66 66 65 65 65 65 64 64 64 64 64 64 64 64 63 63 63 63 64 64 64 64 64 64 64 63 62 61 60 59 59 60 61 62 62 63 62 63 64 64 64
64 63 63 64 64 64 64 64 64 63 62 62 64 66 66 66 65 65 65 65 65 66 66 66 66 66 66 65 65 65 64 65 64 64 64 64 64 64 63 64 64 64 65 65 64 64 64 64 64 62 62 61 60 59 60 60 61 62 63 62 64 64 64
63 63 63 63 63 64 64 64 64 63 62 62 64 66 66 66 65 65 65 65 65 65 65 66 67 66 66 66 65 65 65 65 65 64 64 64 64 64 64 64 64 64 64 65 65 65 64 64 64 63 62 61 61 60 59 59 60 61 62 63 62 64 64
62 63 63 63 63 63 63 63 63 63 63 63 64 65 66 66 65 66 65 65 65 65 65 66 66 66 66 66 66 65 65 65 65 65 65 65 65 65 64 64 64 64 65 65 65 65 64 64 64 63 63 63 62 61 60 60 60 62 62 63 63 63 64
62 63 63 63 63 63 62 62 63 63 64 64 65 65 65 65 65 65 65 64 65 64 65 65 65 66 66 66 66 66 66 65 65 65 65 65 65 65 65 64 65 65 65 65 65 65 65 64 64 64 63 63 62 63 61 61 58 60 63 62 63 64 64
62 63 63 63 62 62 62 62 62 63 64 64 65 65 65 65 65 65 65 65 64 64 64 64 65 65 66 66 66 66 66 66 65 65 65 66 65 65 65 65 65 65 65 65 65 65 64 64 64 64 64 63 63 63 62 60 61 59 62 63 63 63 64
62 62 63 63 62 62 62 62 63 63 64 64 65 65 65 65 65 65 64 64 64 64 64 64 64 65 65 65 65 66 66 66 66 65 66 66 66 65 65 65 65 65 65 65 65 65 65 64 65 65 64 64 63 62 62 61 61 59 61 61 63 63 64
62 62 63 62 62 62 62 62 63 63 64 64 64 64 64 65 65 65 64 64 64 64 64 64 64 64 64 65 65 65 66 66 66 66 66 66 66 66 65 65 65 65 65 65 65 65 65 65 64 64 64 63 63 61 62 61 61 60 60 61 62 63 63
62 63 63 62 62 62 62 62 63 63 64 64 64 64 64 65 65 64 64 64 64 64 64 64 64 64 64 64 64 65 65 65 65 65 66 66 66 66 65 65 65 65 65 65 65 65 65 65 65 64 64 64 63 62 61 62 60 60 61 60 61 62 62
62 62 62 62 62 62 62 62 63 63 63 64 64 64 64 64 65 65 64 64 64 64 64 64 64 64 64 64 64 65 65 65 65 65 65 65 66 65 65 65 65 65 65 65 65 65 65 65 65 65 64 63 64 62 61 60 62 61 61 60 60 61 62
62 62 62 62 62 62 62 62 62 62 63 63 64 64 64 64 64 64 64 64 64 64 64 64 64 64 64 65 65 65 65 65 65 65 65 65 66 65 65 65 65 65 65 65 65 65 65 65 65 65 64 63 63 62 61 60 61 60 60 60 60 62 62
61 61 62 62 62 62 62 62 62 62 63 63 63 64 64 64 64 64 64 64 64 64 64 65 64 64 64 65 65 66 65 65 65 65 65 65 66 66 66 65 66 65 65 65 65 65 65 65 65 65 65 64 63 62 61 61 61 61 61 61 60 60 62
61 61 61 62 62 62 62 62 62 62 63 63 63 63 64 64 64 64 64 64 64 64 65 65 65 65 65 65 65 66 66 66 66 66 65 65 66 66 66 66 66 65 65 65 65 65 65 65 65 65 64 64 63 62 61 61 61 61 61 60 60 61 61
61 61 61 62 62 62 62 62 63 63 63 63 63 63 63 64 64 64 64 64 64 64 64 65 65 65 65 65 65 66 66 66 66 66 66 66 66 66 66 66 66 65 65 65 65 65 65 65 65 65 65 65 63 62 61 61 60 61 60 60 60 60 61
61 61 61 61 61 62 62 62 63 63 63 63 63 64 64 64 64 63 61 62 63 64 64 65 65 65 65 65 66 66 66 66 66 65 65 66 66 66 65 66 66 65 65 66 62 62 62 63 65 65 64 64 63 63 62 61 60 60 60 60 59 60 60
61 61 61 61 61 62 62 62 62 63 63 63 64 64 64 64 63 63 62 61 61 62 62 63 61 58 58 65 66 66 66 66 66 65 65 65 65 65 65 65 66 66 63 62 60 57 56 57 60 64 65 64 63 63 62 61 61 60 60 59 59 59 59
61 61 61 61 61 62 62 62 62 63 63 63 63 63 63 63 62 62 62 61 62 62 62 62 57 54 52 52 62 65 66 66 66 65 65 65 65 65 65 65 65 65 63 61 60 55 54 54 54 56 57 58 60 63 62 61 61 61 60 60 60 59 59
61 61 61 61 61 62 62 62 62 62 63 63 63 62 62 62 62 62 62 62 62 62 63 60 51 52 52 51 56 64 65 66 66 66 65 65 65 65 65 65 65 65 65 65 64 61 56 53 52 52 52 53 54 54 56 61 61 61 61 60 60 59 59
61 61 61 62 62 62 62 62 62 62 63 63 63 62 62 62 62 62 62 62 62 63 63 55 50 51 50 49 50 60 65 66 66 66 66 66 65 65 65 65 64 65 65 63 64 64 62 60 53 52 53 53 53 52 50 51 54 61 61 61 60 60 60
61 61 62 62 62 62 62 62 62 63 63 63 63 63 63 62 62 63 63 63 62 63 63 57 50 51 50 49 49 54 65 65 66 66 66 66 66 65 65 65 64 64 64 65 64 64 63 63 61 59 59 59 60 58 52 50 50 52 57 61 61 60 60
61 61 61 62 62 62 62 62 62 63 63 63 62 62 62 62 63 63 63 63 63 63 63 54 49 49 50 48 48 50 64 65 65 66 66 66 66 66 66 65 65 65 64 64 64 63 64 63 63 62 61 61 61 61 60 59 58 58 59 62 62 62 61
61 61 61 62 62 62 62 62 62 63 63 63 63 63 63 63 62 62 63 63 63 62 63 52 49 49 49 48 46 54 62 65 65 65 65 66 66 66 66 66 65 65 64 64 60 54 58 63 63 62 62 62 61 62 61 59 54 54 59 62 62 62 62
61 61 61 61 62 62 62 62 63 63 63 63 63 62 62 62 63 63 62 63 62 62 63 55 48 49 48 48 48 56 60 64 65 66 66 66 66 66 66 66 65 65 65 64 57 50 51 57 63 63 62 62 62 62 62 62 53 49 49 51 53 54 53
60 60 61 61 61 62 62 63 63 63 63 63 62 62 63 63 63 63 62 62 63 62 62 58 49 49 48 46 52 59 61 63 64 65 65 65 66 66 66 64 65 65 65 64 53 48 48 57 63 63 63 63 62 61 61 61 58 56 49 49 48 47 47
59 60 60 61 61 61 62 62 62 62 63 63 63 63 62 62 62 62 62 62 60 61 62 59 49 48 47 46 52 61 61 62 63 63 64 64 64 65 65 64 62 62 64 61 51 48 48 56 63 63 63 63 62 61 61 61 59 58 56 55 56 55 53
57 58 59 59 59 60 61 61 61 62 62 63 62 63 62 62 62 62 62 62 62 62 62 62 56 47 47 45 49 61 62 62 62 62 63 63 63 62 63 64 61 53 52 52 49 47 47 49 62 64 64 63 62 61 62 61 59 59 59 57 58 57 58
56 56 57 58 58 59 60 61 61 62 62 62 62 62 63 62 62 62 62 62 62 62 62 62 60 47 47 46 46 54 62 62 62 62 62 61 63 63 63 63 64 55 50 50 48 46 47 46 52 64 64 63 62 61 59 60 58 56 59 59 59 58 58
56 56 57 57 57 57 58 60 60 61 62 62 62 62 62 62 62 62 62 62 62 62 62 59 62 48 46 46 46 49 61 62 62 63 63 63 63 63 63 64 63 57 49 48 47 47 46 47 46 60 63 55 54 52 60 61 60 58 59 59 58 57 57
56 57 56 56 56 57 57 59 60 60 61 61 61 61 62 62 61 61 62 62 62 62 63 61 54 55 47 46 45 46 50 57 52 62 63 63 63 63 64 64 63 56 48 48 47 46 46 46 47 54 53 51 51 48 53 60 57 58 58 57 56 56 56
55 56 56 56 57 57 57 58 59 60 60 60 61 61 61 61 61 61 61 61 62 62 62 62 54 52 52 45 45 45 46 48 50 59 63 63 63 63 63 64 61 52 49 48 46 46 46 46 51 48 48 49 47 48 59 57 55 56 56 56 55 56 56